Flag for Sweden Weather past 2 weeks in Linköping, Sweden

39 °F

Partly cloudy.

Feels Like: 35 °F
Forecast: 37 / 46 °F
Wind: 6 mph from Southwest

Location: Linkoping / Saab

Current Time: Nov 26, 2015 at 3:50:19 PM

Latest Report: Nov 26, 2015 at 3:20 PM

Visibility: N/A

Pressure: 29.80 "Hg

Humidity: 93%

Dew point: 37 °F

Location of LinköpingLocation

Historic Weather in Linköping — Graph


Linköping temperature yesterday

Maximum temperature yesterday: 37 °F (at 12:20 AM)
Minimum temperature yesterday: 36 °F (at 5:50 AM)
Average temperature yesterday: 36 °F

Past Weeks' High & Low Weather Summary

High52 °F (Nov 11, 2:20 PM)100% (Nov 15, 10:50 PM)30.01 "Hg (Nov 15, 10:50 PM)
Low16 °F (Nov 23, 4:20 AM)71% (Nov 14, 4:50 PM)29.12 "Hg (Nov 19, 6:50 AM)
Average37 °F90%29.58 "Hg
* Reported Nov 11 2:20 PM — Nov 26 2:20 PM, Linköping, Weather by CustomWeather, © 2015

Note: Actual official high and low records may vary slightly from our data, if they occured in-between our weather recording intervals... More about our weather records


Linköping weather history for previous 24 hours

Time TempWeatherWind HumidityBarometerVisibility
2:20 PM
Thu, Nov 26
39 °FPartly sunny.5 mph93%29.80 "HgN/A
1:50 PM39 °FPartly sunny.6 mph93%29.80 "HgN/A
1:20 PM39 °FPartly sunny.5 mph93%29.80 "HgN/A
12:50 PM39 °FPartly sunny.5 mph93%29.80 "HgN/A
12:20 PM39 °FBroken clouds.5 mph93%29.80 "HgN/A
11:50 AM39 °FBroken clouds.6 mph93%29.77 "HgN/A
11:20 AM37 °FMore clouds than sun.6 mph100%29.77 "HgN/A
10:50 AM37 °FBroken clouds.5 mph93%29.77 "HgN/A
10:20 AM37 °FMostly cloudy.5 mph93%29.77 "HgN/A
9:50 AM36 °FBroken clouds.3 mph100%29.74 "HgN/A
9:20 AM36 °FFog.5 mph100%29.74 "Hg5 mi
8:50 AM36 °FFog.3 mph100%29.74 "Hg4 mi
8:20 AM36 °FFog.5 mph100%29.71 "Hg3 mi
7:20 AM36 °FPassing clouds.3 mph100%29.68 "Hg3 mi
6:50 AM36 °FFog.2 mph100%29.68 "Hg4 mi
6:20 AM36 °FFog.2 mph100%29.68 "Hg4 mi
5:50 AM36 °FFog.3 mph100%29.65 "Hg4 mi
5:20 AM36 °FLow clouds.3 mph100%29.65 "Hg4 mi
4:50 AM36 °FLow clouds.5 mph100%29.65 "Hg4 mi
4:20 AM36 °FLow clouds.5 mph100%29.62 "HgN/A
3:50 AM36 °FLow clouds.5 mph100%29.62 "Hg4 mi
3:20 AM36 °FLow clouds.2 mph100%29.59 "Hg5 mi
2:50 AM36 °FLow clouds.2 mph100%29.59 "Hg6 mi
2:20 AM36 °FLow clouds.3 mph100%29.59 "Hg5 mi
1:20 AM36 °FMostly cloudy.3 mph100%29.59 "HgN/A
12:50 AM36 °FMostly cloudy.5 mph100%29.56 "HgN/A
12:20 AM36 °FMostly cloudy.5 mph100%29.56 "HgN/A
11:50 PM
Wed, Nov 25
36 °FLow clouds.3 mph100%29.56 "HgN/A
11:20 PM36 °FLow clouds.1 mph100%29.56 "HgN/A
10:50 PM36 °FLow clouds.1 mph93%29.56 "HgN/A
10:20 PM36 °FMostly cloudy.2 mph93%29.56 "HgN/A
9:50 PM36 °FOvercast.3 mph100%29.56 "HgN/A
9:20 PM36 °FOvercast.3 mph100%29.53 "HgN/A
8:50 PM36 °FOvercast.5 mph100%29.53 "HgN/A
8:20 PM36 °FLow clouds.2 mph100%29.53 "HgN/A
7:50 PM36 °FLight rain. Partly cloudy.2 mph100%29.53 "HgN/A
7:20 PM36 °FLight rain. Mostly cloudy.5 mph100%29.53 "HgN/A
6:50 PM36 °FLight rain. Mostly cloudy.3 mph100%29.53 "HgN/A
6:20 PM36 °FLight rain. Overcast.6 mph100%29.50 "HgN/A
5:50 PM36 °FLight rain. Overcast.6 mph100%29.50 "HgN/A
5:20 PM36 °FLight rain. Low clouds.6 mph100%29.50 "HgN/A
4:50 PM36 °FLight rain. Mostly cloudy.6 mph100%29.50 "HgN/A
4:20 PM36 °FLight rain. Mostly cloudy.6 mph100%29.50 "HgN/A
3:50 PM36 °FLight rain. Passing clouds.7 mph100%29.50 "HgN/A
3:20 PM36 °FLight rain. Mostly cloudy.7 mph100%29.50 "HgN/A
Weather by CustomWeather, © 2015

See weather overviewHow to use our weather pages